Tracking 19846 objects as of 19-Sep-2019
HD Live streaming from Space Station
objects crossing your sky now

FENGYUN 1C DEB

Track FENGYUN 1C DEB now!
10-day predictions


NORAD ID: 39537
Int'l Code: 1999-025EWE
Perigee: 846.3 km
Apogee: 1,133.5 km
Inclination: 99.1 °
Period: 104.8 minutes
Semi major axis: 7360 km
RCS: Unknown
Launch date: May 10, 1999
Source: People's Republic of China (PRC)
Launch site: Taiyaun Space Center, China (TSC)

Note: This is SATELLITE DEBRIS
aabbcc
Your satellite tracking list
Your tracking list is empty




NASA's NSSDC Master Catalog

Two Line Element Set (TLE):
1 39537U 99025EWE 19259.78904124  .00000438  00000-0  44113-3 0  9994
2 39537  99.0912 109.3274 0195107 274.4175  83.4708 13.74698003316795
Source of the keplerian elements: AFSPC